Back to catalog

CZ-6A DEB

AliveSSO
NORAD 54306·DEBRIS·🇨🇳 China

Launched Nov 11, 2022 from Taiyuan Satellite Launch Center

Loading…

Next Passes (next 24 hours)

TLE

FreshSource: Space-Track

Epoch: Sep 14, 2026, 06:49 UTC

1 54306U 22151AZ  26257.28458234  .00000240  00000-0  15440-3 0  9990
2 54306  98.8401 258.7033 0040853  75.0477 285.5212 14.11725738197166

Track CZ-6A DEB in real time with AllMySat

Download on the App Store